[[{"header":{"parameterUnit":"m.s-1","parameterCategory":1,"la1":30.2991,"la2":30.254,"lo1":-89.0895,"lo2":-89.0444,"dy":0.0017,"dx":0.0017,"nx":28,"ny":28,"refTime":"2025-07-20T09:00:00:Z","depth":0,"parameterNumber":2,"parameterNumberName":"U-component_of_WINDS"},"data":[0,0,0,0,0,0,0,0,0,0,0,0,0,0,0,0,0,0,0,0,0,0,0,0,0,0,0,0,0,0,0,0,0,0,0,0,0,0,0,0,0,0,0,0,0,0,0,0,0,0,0,0,0,0,0,0,0,0,2.1512,2.1513,0,2.1628,2.163,2.1631,2.1666,2.1665,2.1664,2.1664,2.1788,2.1791,2.1795,0,0,0,0,0,0,0,0,0,0,0,0,0,2.1324,2.1328,2.1512,2.1513,2.1515,2.1628,2.163,2.1631,2.1666,2.1665,2.1664,2.1664,2.1786,2.1791,2.1795,0,0,0,0,0,0,0,0,0,0,0,0,0,2.142,2.1329,2.1512,2.1545,2.155,2.1628,2.163,2.1632,2.1666,2.1665,2.1664,2.1663,2.1785,2.179,2.1796,2.185,0,0,2.1814,2.1816,0,0,0,0,0,0,0,0,2.1414,2.1427,2.1539,2.1543,2.1548,2.1631,2.1609,2.1705,2.1666,2.1622,2.1664,2.1663,2.1737,2.1746,2.177,2.1856,2.1862,2.1814,2.1818,2.182,2.1822,0,0,0,0,0,0,0,2.1408,2.1422,2.1558,2.1541,2.1546,2.1557,2.1569,2.1628,2.1683,2.1626,2.1628,2.1642,2.1739,2.1765,2.1774,2.1863,2.1814,2.1819,2.1823,2.1825,2.2003,2.2004,0,0,0,0,0,0,2.1395,2.1416,2.1554,2.1562,2.1477,2.1561,2.1575,2.1606,2.1683,2.1693,2.1642,2.1643,2.1755,2.1767,2.1778,2.1848,2.182,2.1826,2.1829,2.2002,2.2003,2.2005,0,0,0,0,0,0,2.1391,2.1407,2.155,2.149,2.1509,2.1565,2.1599,2.1608,2.1634,2.1695,2.1706,2.1658,2.1755,2.177,2.1833,2.1853,2.1828,2.1834,2.2,2.2002,2.2004,2.1988,0,0,0,0,0,0,2.1385,2.1405,2.1425,2.149,2.1512,2.16,2.1601,2.1611,2.1644,2.1645,2.1713,2.1723,2.1755,2.1824,2.1838,2.1861,2.1838,2.1999,2.2001,2.2003,2.1987,2.1989,2.1991,0,0,0,0,0,2.1378,2.1416,2.1425,2.1442,2.1537,2.1601,2.1614,2.1649,2.1645,2.1666,2.1706,2.1721,2.1848,2.183,2.1847,2.1871,2.1998,2.2,2.2003,2.1986,2.1989,2.1991,0,0,0,0,0,0,2.1352,2.1425,2.1436,2.1496,2.1542,2.1607,2.1635,2.1651,2.17,2.17,2.1743,2.1758,2.1818,2.1851,2.1829,2.1929,2.1924,2.193,2.1905,2.1908,2.191,2.1901,2.1843,0,0,0,0,0,2.1353,2.1398,2.146,2.1506,2.1529,2.1578,2.1607,2.163,2.1681,2.1701,2.1745,2.1794,2.1846,2.1879,2.193,2.1992,2.2009,2.2018,2.202,2.2021,2.2026,2.2064,2.2069,2.2014,2.2014,2.2014,0,0,2.1356,2.1402,2.1427,2.1502,2.1541,2.1588,2.1594,2.1643,2.1679,2.1709,2.177,2.1805,2.1863,2.1927,2.1957,2.1956,2.2045,2.2025,2.2025,2.203,2.2068,2.2073,2.2077,2.2016,2.2015,2.2015,0,0,2.1386,2.1423,2.1468,2.1506,2.1565,2.1597,2.1608,2.1671,2.1695,2.1757,2.1781,2.1826,2.1913,2.1954,2.1987,2.2035,2.2051,2.205,2.2061,2.2097,2.2102,2.2106,2.2124,2.213,2.2055,2.2055,2.2055,0,2.1382,2.1452,2.1488,2.1537,2.157,2.1599,2.1645,2.1682,2.1754,2.1777,2.1775,2.1887,2.1928,2.2002,2.2014,2.2039,2.2054,2.2043,2.2098,2.2102,2.2107,2.2125,2.2132,2.2055,2.2055,2.2055,2.2055,0,2.1446,2.1495,2.1524,2.1592,2.1629,2.1676,2.1721,2.1755,2.1776,2.1809,2.1875,2.1925,2.1988,2.2007,2.2028,2.2086,2.2083,2.2089,2.2084,2.2111,2.2129,2.2136,2.2054,2.2054,2.2054,2.2054,0,0,2.1461,2.155,2.156,2.1593,2.166,2.1699,2.1749,2.1809,2.1838,2.1888,2.1932,2.2006,2.2012,2.2049,2.2076,2.2107,2.2144,2.211,2.2112,2.2115,2.2213,2.2209,2.2216,2.2156,2.2157,2.2158,2.2209,0,2.1499,2.1587,2.1623,2.1695,2.1742,2.1771,2.1815,2.1862,2.1896,2.1942,2.198,2.2032,2.2035,2.2058,2.2091,2.2133,2.2165,2.213,2.2199,2.2201,2.2183,2.2225,2.2221,2.2265,2.2216,2.2217,2.2218,0,2.1556,2.1605,2.1682,2.1746,2.1767,2.1805,2.1865,2.1908,2.1963,2.1986,2.2028,2.2053,2.2109,2.2101,2.2179,2.2155,2.2186,2.2211,2.2213,2.2221,2.2211,2.2235,2.228,2.2287,2.2229,2.2228,2.2227,0,2.156,2.1646,2.1704,2.1731,2.1807,2.1833,2.1866,2.1921,2.1956,2.2008,2.2032,2.209,2.2123,2.2169,2.221,2.22,2.2286,2.2281,2.2308,2.2307,2.2324,2.2322,2.2375,2.2343,2.2343,2.2343,2.2343,0,2.16,2.1646,2.1707,2.1743,2.1796,2.1838,2.189,2.1926,2.1974,2.2019,2.2049,2.209,2.2142,2.2191,2.2224,2.2285,2.2299,2.232,2.2329,2.2318,2.2315,2.2339,2.2337,2.2345,2.2344,2.2344,2.2343,0,2.1613,2.1656,2.1721,2.1788,2.1806,2.1843,2.1901,2.1938,2.1973,2.203,2.2045,2.2102,2.2161,2.2207,2.2284,2.2306,2.2372,2.238,2.2352,2.2357,2.2381,2.2379,2.2451,2.2464,2.2422,2.2423,2.2423,0,2.1636,2.1672,2.1743,2.1774,2.1807,2.1857,2.1893,2.1937,2.1973,2.204,2.207,2.2131,2.2182,2.2276,2.2325,2.2385,2.2396,2.2418,2.2405,2.2394,2.2398,2.2395,2.24,2.2419,2.2419,2.242,2.242,0,2.1671,2.1691,2.1741,2.1799,2.1841,2.1889,2.1937,2.1962,2.2015,2.2054,2.2115,2.2155,2.2234,2.2295,2.2361,2.2397,2.2418,2.2423,2.2433,2.2422,2.2405,2.2416,2.2357,2.2421,2.2421,2.2421,2.2421,2.2421,2.1691,2.1725,2.1781,2.1836,2.1878,2.1923,2.1961,2.2002,2.2053,2.212,2.2143,2.2206,2.2264,2.2354,2.2391,2.2443,2.2443,2.2457,2.246,2.2463,2.2463,2.2397,2.2455,2.2455,2.2455,2.2455,2.2455,0,2.1729,2.1767,2.1817,2.1884,2.1928,2.1943,2.1999,2.2035,2.209,2.2141,2.2191,2.2262,2.2323,2.2377,2.244,2.2471,2.2483,2.2486,2.2485,2.2493,2.2458,2.2444,2.2476,2.2476,2.2476,2.2476,2.2476,2.2476,2.1754,2.1813,2.184,2.1922,2.196,2.2021,2.2051,2.2094,2.2136,2.2213,2.2263,2.2298,2.2352,2.242,2.2476,2.2491,2.2514,2.2515,2.2533,2.2498,2.2496,2.2493,2.248,2.252,2.252,2.2564,2.2564,2.2565]},{"header":{"parameterUnit":"m.s-1","parameterCategory":1,"la1":30.2991,"la2":30.254,"lo1":-89.0895,"lo2":-89.0444,"dy":0.0017,"dx":0.0017,"nx":28,"ny":28,"refTime":"2025-07-20T09:00:00:Z","depth":0,"parameterNumber":3,"parameterNumberName":"V-component_of_WINDS"},"data":[0,0,0,0,0,0,0,0,0,0,0,0,0,0,0,0,0,0,0,0,0,0,0,0,0,0,0,0,0,0,0,0,0,0,0,0,0,0,0,0,0,0,0,0,0,0,0,0,0,0,0,0,0,0,0,0,0,0,1.2706,1.2706,0,1.2764,1.2765,1.2765,1.2768,1.2767,1.2767,1.2766,1.2824,1.2826,1.2828,0,0,0,0,0,0,0,0,0,0,0,0,0,1.2592,1.2594,1.2706,1.2706,1.2707,1.2764,1.2765,1.2766,1.2768,1.2767,1.2766,1.2766,1.2823,1.2826,1.2829,0,0,0,0,0,0,0,0,0,0,0,0,0,1.2645,1.2595,1.2705,1.2715,1.2717,1.2764,1.2765,1.2766,1.2768,1.2767,1.2766,1.2765,1.2822,1.2826,1.2829,1.287,0,0,1.2839,1.284,0,0,0,0,0,0,0,0,1.2642,1.2649,1.2713,1.2715,1.2716,1.2758,1.2746,1.2801,1.2769,1.2749,1.2766,1.2765,1.2803,1.2808,1.2821,1.2873,1.2875,1.2839,1.2841,1.2843,1.2844,0,0,0,0,0,0,0,1.2638,1.2646,1.2729,1.2714,1.2716,1.2715,1.2722,1.2756,1.2781,1.275,1.2751,1.2758,1.2803,1.2818,1.2822,1.2876,1.2839,1.2842,1.2844,1.2845,1.296,1.2961,0,0,0,0,0,0,1.2633,1.2643,1.2727,1.273,1.2676,1.2718,1.2725,1.2745,1.278,1.2785,1.2758,1.2757,1.2812,1.2818,1.2824,1.2872,1.2843,1.2846,1.2848,1.2959,1.296,1.2961,0,0,0,0,0,0,1.2631,1.264,1.2724,1.2687,1.2698,1.2721,1.2744,1.2747,1.2761,1.2786,1.279,1.2769,1.2812,1.282,1.2858,1.2874,1.2847,1.285,1.2958,1.2959,1.2961,1.2969,0,0,0,0,0,0,1.2627,1.264,1.2657,1.2687,1.27,1.2758,1.2745,1.2749,1.2767,1.2767,1.2797,1.2801,1.2812,1.2853,1.2861,1.2878,1.2853,1.2956,1.2958,1.296,1.2967,1.297,1.2973,0,0,0,0,0,1.2623,1.2657,1.2658,1.2668,1.2722,1.2759,1.2766,1.2778,1.2769,1.2785,1.28,1.28,1.2871,1.2857,1.2866,1.2884,1.2955,1.2958,1.296,1.2966,1.297,1.2973,0,0,0,0,0,0,1.2628,1.2661,1.2662,1.2707,1.273,1.276,1.2781,1.2783,1.2809,1.2807,1.282,1.2826,1.2863,1.2878,1.2861,1.2923,1.2912,1.2916,1.2913,1.2917,1.292,1.2915,1.2855,0,0,0,0,0,1.2634,1.2663,1.269,1.2727,1.2739,1.2758,1.2775,1.2781,1.2806,1.2815,1.2834,1.2857,1.2883,1.2901,1.2928,1.2969,1.2974,1.2986,1.2989,1.2991,1.2995,1.3014,1.3019,1.2969,1.2969,1.2969,0,0,1.2648,1.2669,1.2687,1.2729,1.2748,1.2775,1.2766,1.2797,1.2817,1.282,1.2857,1.2871,1.2896,1.2935,1.2954,1.2948,1.3009,1.2994,1.2996,1.2998,1.3017,1.3022,1.3026,1.2971,1.297,1.297,0,0,1.2686,1.2706,1.2738,1.2756,1.2784,1.2796,1.2803,1.2832,1.2841,1.2878,1.288,1.2903,1.295,1.2967,1.2982,1.3023,1.3023,1.3031,1.3047,1.3066,1.307,1.3073,1.3086,1.309,1.3035,1.3035,1.3035,0,1.2699,1.2742,1.2754,1.2784,1.28,1.2804,1.2834,1.2851,1.2886,1.2897,1.2891,1.2948,1.2966,1.3007,1.3017,1.303,1.3036,1.3028,1.3069,1.3072,1.3076,1.3087,1.3092,1.3035,1.3035,1.3035,1.3035,0,1.2755,1.2784,1.2806,1.2839,1.2859,1.2889,1.2903,1.2921,1.2925,1.2937,1.2972,1.2994,1.3023,1.3033,1.3038,1.3075,1.307,1.3066,1.3054,1.3081,1.3092,1.3097,1.3036,1.3036,1.3036,1.3036,0,0,1.28,1.2836,1.2844,1.2857,1.2887,1.2909,1.2938,1.2966,1.298,1.3003,1.3026,1.3064,1.306,1.3077,1.3083,1.31,1.3127,1.3093,1.3094,1.3097,1.3165,1.3167,1.3172,1.3127,1.3128,1.3129,1.3162,0,1.284,1.2892,1.2901,1.2946,1.2971,1.2973,1.2997,1.3017,1.3028,1.305,1.3062,1.3088,1.3081,1.3091,1.3107,1.312,1.3141,1.3118,1.3147,1.3148,1.3139,1.3179,1.3181,1.3212,1.3167,1.3168,1.3168,0,1.2894,1.2917,1.2964,1.2987,1.2998,1.302,1.3044,1.3066,1.3087,1.3094,1.3111,1.3115,1.3142,1.3129,1.3166,1.315,1.3162,1.317,1.3171,1.3174,1.3159,1.318,1.3222,1.3226,1.3176,1.3175,1.3175,0,1.2919,1.2962,1.2995,1.3006,1.3034,1.3049,1.3061,1.3082,1.3097,1.3118,1.3127,1.3152,1.3165,1.3183,1.3192,1.3182,1.3227,1.3216,1.3231,1.3231,1.3241,1.324,1.3284,1.325,1.325,1.325,1.325,0,1.2962,1.299,1.3006,1.3026,1.3056,1.3066,1.3095,1.3107,1.3124,1.3145,1.3148,1.3167,1.3179,1.3199,1.3206,1.3234,1.324,1.3245,1.3246,1.3244,1.3243,1.3252,1.3249,1.3251,1.3251,1.3251,1.3251,0,1.2995,1.3007,1.3042,1.3065,1.3071,1.3092,1.3111,1.3129,1.3139,1.3165,1.3172,1.3187,1.3211,1.3222,1.3251,1.3256,1.3287,1.3288,1.328,1.328,1.3294,1.3292,1.3344,1.3351,1.3315,1.3315,1.3315,0,1.3021,1.3042,1.3066,1.308,1.3092,1.3116,1.313,1.314,1.3155,1.3179,1.3193,1.3217,1.3237,1.3274,1.3287,1.3309,1.3309,1.3326,1.3312,1.3308,1.3307,1.3305,1.3306,1.3328,1.3328,1.3329,1.3329,0,1.3065,1.3069,1.3091,1.3113,1.3131,1.315,1.3168,1.3179,1.3191,1.3207,1.3231,1.3246,1.3275,1.3298,1.332,1.3331,1.3331,1.3333,1.3337,1.3335,1.3329,1.333,1.3285,1.3332,1.3331,1.3331,1.3331,1.3331,1.3094,1.3111,1.313,1.3153,1.3168,1.3184,1.3201,1.3212,1.3233,1.3257,1.3261,1.3286,1.3303,1.3333,1.3344,1.3363,1.3359,1.3366,1.3367,1.3368,1.3368,1.3326,1.3367,1.3367,1.3367,1.3367,1.3367,0,1.3136,1.3147,1.3169,1.3193,1.321,1.3209,1.3228,1.3242,1.3264,1.3281,1.3299,1.3325,1.3346,1.336,1.3381,1.3393,1.3393,1.3398,1.3396,1.3398,1.3372,1.3365,1.3397,1.3397,1.3397,1.3397,1.3397,1.3397,1.316,1.3189,1.3195,1.3229,1.3241,1.3265,1.3275,1.3289,1.3302,1.3331,1.3348,1.3357,1.3371,1.3393,1.3411,1.3415,1.3421,1.3426,1.3429,1.3404,1.34,1.3397,1.3391,1.3428,1.3428,1.3453,1.3454,1.3454]}]]